Preview of NWS' New Version of Forecast
This preview is not operational and should not be used for support decisions.

Regional Weather Roundup (RWR)

Issued by National Weather Service (NWS)

                            
000
ASUS46 KSTO 200715
RWRCA 

NORTHERN AND CENTRAL CA REGIONAL WEATHER ROUNDUP
NATIONAL WEATHER SERVICE SACRAMENTO CA 
1200 AM PDT MON MAY 20 2019

NOTE: FAIR INDICATES FEW OR NO CLOUDS BELOW 12,000 FEET WITH NO
SIGNIFICANT WEATHER AND/OR OBSTRUCTIONS TO VISIBILITY.

CAZ001-003-200800-
NORTHWEST AREA
  
CITY           SKY/WX    TMP DP  RH WIND       PRES   REMARKS
CRESCENT CITY  CLOUDY    52  49  89 CALM      29.90F                  
UKIAH          CLOUDY    51  46  83 CALM      29.89S                  
$$

CAZ006-505>513-200800-
BAY AREA
  
CITY           SKY/WX    TMP DP  RH WIND       PRES   REMARKS
SANTA ROSA     PTCLDY    47  47 100 N3        29.89R                  
SAN RAFAEL     N/A      MM  MM  MM MISG
NAPA           MOCLDY    51  49  92 N7        29.89S                  
CONCORD        CLEAR     53  47  79 CALM      29.90R                  
OAKLAND CITY   N/A       54  MM  MM MISG
OAKLAND        MOCLDY    56  48  74 SW3       29.90R                  
SAN FRAN CITY  N/A       52  MM  87 MISG
SAN FRAN ARPT  MOCLDY    52  48  86 SW3       29.89R                  
LIVERMORE      CLOUDY    50  48  93 E3        29.89R                  
HAYWARD        CLOUDY    54  49  83 S3        29.89S                  
REDWOOD CITY   N/A       52  MM  87 MISG
MOFFETT ARPT   CLOUDY    54  49  83 CALM      29.90S                  
SAN JOSE ARPT  MOCLDY    53  51  93 E3        29.90R                  
$$
CAZ034-037-514>518-200800-
CENTRAL COAST
  
CITY           SKY/WX    TMP DP  RH WIND       PRES   REMARKS
WATSONVILLE    MOCLDY    49  48  97 NW3       29.91R                  
SALINAS        CLOUDY    54  50  86 CALM      29.90S                  
MONTEREY       CLOUDY    53  50  89 SW3       29.91S                  
SAN LUIS OBISP CLOUDY    51  49  92 CALM      29.91S                  
SANTA MARIA    CLOUDY    55  53  93 CALM      29.92S                  
$$
CAZ015-016-200800-
NORTHERN SACRAMENTO VALLEY
  
CITY           SKY/WX    TMP DP  RH WIND       PRES   REMARKS
REDDING        CLOUDY    54  46  74 S7        29.89R                  
RED BLUFF      PTCLDY    50  45  83 S6        29.90S                  
OROVILLE       CLEAR     50  45  83 CALM      29.92S                  
$$
CAZ016>018-200800-
SOUTHERN SACRAMENTO VALLEY
  
CITY           SKY/WX    TMP DP  RH WIND       PRES   REMARKS
AUBURN         CLEAR     45  43  93 CALM      29.91R                  
BEALE AFB      CLEAR     47  44  87 CALM      29.90R                  
LINCOLN        FAIR      43  43 100 NE3       29.90R                  
MARYSVILLE     CLEAR     46  45  96 CALM      29.92R FOG              
SAC INTL ARPT  PTCLDY    47  46  97 N5        29.90R                  
MATHER AIRPORT NOT AVBL                                               
DOWNTOWN SAC   N/A       50  MM  MM MISG
SAC EXEC ARPT  MOCLDY    49  48  97 CALM      29.90R                  
VACAVILLE      CLEAR     47  47 100 CALM      29.91R                  
TRAVIS AFB     CLEAR     46  42  88 N3        29.90R                  
$$
CAZ019>021-200800-
SAN JOAQUIN VALLEY
  
CITY           SKY/WX    TMP DP  RH WIND       PRES   REMARKS
STOCKTON       MOCLDY    52  49  89 CALM      29.89S                  
MODESTO        CLOUDY    52  49  89 CALM      29.89R                  
MERCED         CLOUDY    52  50  93 CALM      29.89S                  
LEMOORE        CLOUDY    53  45  74 N5        29.89F                  
FRESNO         CLOUDY    54  49  83 NW3       29.89R                  
HANFORD        LGT RAIN  53  50  89 W6        29.90S                  
PORTERVILLE    LGT RAIN  53  50  89 W3        29.90S                  
BAKERSFIELD    MOCLDY    54  50  86 CALM      29.87F                  
$$
CAZ011-012-071-200800-
NORTHERN MOUNTAINS
  
CITY           SKY/WX    TMP DP  RH WIND       PRES   REMARKS
YREKA          CLOUDY    49  41  74 SE5       29.86R                  
MOUNT SHASTA   LGT RAIN  41  39  93 CALM      29.85S                  
ALTURAS        CLOUDY    41  38  89 W15       29.81S                  
$$
CAZ011-012-071-200800-
SIERRA NEVADA MTNS
  
CITY           SKY/WX    TMP DP  RH WIND       PRES   REMARKS
TRUCKEE        CLOUDY    28  27  93 CALM      29.86R                  
TAHOE VLY ARPT CLEAR     29  25  85 CALM      29.83R                  
MAMMOTH LAKES  FAIR      28  17  62 CALM      29.78S                  
$$